Home   Weather   Garmisch-Partenkirchen   Past weeks

Flag for Germany Past Weather in Garmisch-Partenkirchen, Bavaria, Germany — Yesterday and Last 2 Weeks

Now
18 °F

Clear.


Feels Like: 18 °F
Forecast: 9 / 33 °F
Wind: 1 mph from North

Location: Innsbruck-Flughafen

Current Time: Jan 19, 2017 at 6:24:22 pm

Latest Report: Jan 19, 2017 at 5:50 pm


Visibility: 10 mi

Pressure: 30.42 "Hg (27.80 "Hg at 699m altitude)

Humidity: 79%

Dew Point: 12 °F

Location of Garmisch-PartenkirchenLocation

Past Weather in Garmisch-Partenkirchen — Graph

°F

Garmisch-Partenkirchen Temperature Yesterday

Maximum temperature yesterday: 23 °F (at 12:20 pm)
Minimum temperature yesterday: 12 °F (at 8:20 pm)
Average temperature yesterday: 18 °F

High & Low Weather Summary for the Past Weeks

 TemperatureHumidityPressure
High39 °F (Jan 4, 5:20 pm)100% (Jan 4, 10:50 pm)30.63 "Hg (Jan 4, 10:50 pm)
Low3 °F (Jan 7, 3:20 am)48% (Jan 13, 4:50 pm)29.42 "Hg (Jan 13, 4:20 am)
Average23 °F85%30.14 "Hg
* Reported Jan 4 5:20 pm — Jan 19 5:20 pm, Garmisch-Partenkirchen, Weather by CustomWeather, © 2017

Note: Actual official high and low records may vary slightly from our data, if they occured in-between our weather recording intervals... More about our weather records

Advertising

Garmisch-Partenkirchen Weather History for the Previous 24 Hours

Scroll right to see more
 ConditionsComfort  
Time TempWeatherWind HumidityBarometerVisibility
5:20 pm
Thu, Jan 19
18 °FClear.2 mph86%30.42 "Hg10 mi
4:50 pm19 °FSunny.2 mph79%30.42 "Hg10 mi
4:20 pm23 °FSunny.2 mph74%30.42 "Hg10 mi
3:50 pm25 °FSunny.2 mph63%30.39 "Hg10 mi
3:20 pm27 °FSunny.1 mph59%30.39 "Hg10 mi
2:50 pm25 °FSunny.1 mph59%30.42 "Hg10 mi
2:20 pm25 °FSunny.No wind63%30.42 "Hg10 mi
1:50 pm25 °FSunny.1 mph59%30.42 "Hg10 mi
1:20 pm21 °FSunny.2 mph63%30.42 "Hg10 mi
12:50 pm21 °FSunny.3 mph63%30.45 "Hg10 mi
12:20 pm19 °FSunny.3 mph68%30.45 "Hg10 mi
11:50 am18 °FSunny.3 mph73%30.45 "Hg10 mi
11:20 am16 °FSunny.3 mph79%30.48 "Hg10 mi
10:50 am14 °FSunny.2 mph85%30.48 "Hg10 mi
10:20 am12 °FSunny.3 mph85%30.48 "Hg10 mi
9:50 am12 °FSunny.2 mph92%30.48 "Hg10 mi
9:20 am10 °FSunny.2 mph85%30.51 "Hg10 mi
8:50 am7 °FSunny.2 mph85%30.48 "Hg10 mi
8:20 am9 °FSunny.2 mph85%30.48 "Hg10 mi
7:50 am7 °FClear.3 mph92%30.48 "Hg10 mi
7:20 am7 °FClear.2 mph92%30.48 "Hg10 mi
6:50 am7 °FClear.1 mph92%30.48 "Hg10 mi
6:20 am7 °FClear.1 mph92%30.48 "Hg10 mi
5:50 am9 °FClear.3 mph92%30.48 "Hg10 mi
5:20 am9 °FFrigid.2 mph92%30.48 "HgN/A
4:50 am9 °FFrigid.2 mph92%30.48 "HgN/A
4:20 am9 °FFrigid.1 mph92%30.48 "HgN/A
3:50 am10 °FCold.1 mph92%30.48 "HgN/A
3:20 am10 °FCold.1 mph85%30.48 "HgN/A
2:50 am10 °FCold.1 mphN/A30.48 "HgN/A
2:20 am14 °FSnow flurries. Passing clouds.2 mph85%30.48 "HgN/A
1:50 am16 °FPassing clouds.2 mph86%30.48 "HgN/A
1:20 am16 °FPassing clouds.2 mph79%30.48 "HgN/A
12:50 am16 °FPassing clouds.2 mph79%30.48 "HgN/A
12:20 am16 °FPassing clouds.2 mph86%30.48 "HgN/A
11:50 pm
Wed, Jan 18
16 °FPassing clouds.1 mph86%30.48 "HgN/A
11:20 pm16 °FPassing clouds.1 mph86%30.48 "HgN/A
10:50 pm16 °FPassing clouds.1 mph86%30.48 "HgN/A
10:20 pm16 °FPassing clouds.No wind79%30.48 "HgN/A
9:50 pm16 °FPassing clouds.2 mph86%30.48 "HgN/A
9:20 pm16 °FPassing clouds.1 mph86%30.48 "HgN/A
8:50 pm14 °FPassing clouds.2 mph85%30.48 "HgN/A
8:20 pm12 °FPassing clouds.1 mph92%30.48 "HgN/A
7:50 pm14 °FPassing clouds.2 mph85%30.48 "HgN/A
7:20 pm14 °FPassing clouds.1 mph85%30.45 "HgN/A
6:50 pm16 °FPassing clouds.2 mph79%30.45 "HgN/A
6:20 pm18 °FPassing clouds.2 mph79%30.45 "HgN/A
Weather by CustomWeather, © 2017

See weather overviewHow to use our weather pages